[[{"header":{"parameterUnit":"m.s-1","parameterCategory":1,"la1":30.2992,"la2":30.254,"lo1":-89.0895,"lo2":-89.0443,"dy":0.0025,"dx":0.0025,"nx":19,"ny":19,"refTime":"2026-03-17T21:00:00:Z","depth":0,"parameterNumber":2,"parameterNumberName":"U-component_of_WINDS"},"data":[0,0,0,-4.3806,-4.3808,-4.3922,-4.3922,-4.4091,-4.4093,0,0,0,0,0,0,0,0,0,0,0,-4.3786,-4.3788,-4.3805,-4.3809,-4.3922,-4.3922,-4.4091,-4.4093,0,0,0,0,0,0,0,0,0,0,0,-4.3786,-4.3788,-4.379,-4.3809,-4.3922,-4.3922,-4.409,-4.3996,0,0,0,0,0,0,0,0,0,0,-4.3882,-4.3879,-4.3787,-4.379,-4.381,-4.3922,-4.3922,-4.3991,-4.4002,-4.405,0,-4.4096,0,-4.4097,-4.4106,-4.4106,0,0,0,-4.3798,-4.387,-4.3887,-4.379,-4.3811,-4.3922,-4.3868,-4.3997,-4.4009,-4.4064,-4.4098,-4.4104,-4.41,-4.4107,-4.4108,-4.4419,-4.4421,0,0,-4.3791,-4.3815,-4.3879,-4.3896,-4.388,-4.3864,-4.3871,-4.4004,-4.4043,-4.4099,-4.4108,-4.4103,-4.4108,-4.411,-4.4417,-4.442,0,0,0,-4.3781,-4.3811,-4.3824,-4.389,-4.3908,-4.3868,-4.3876,-4.4037,-4.4039,-4.4109,-4.4105,-4.4109,-4.4112,-4.4415,-4.4418,-4.4538,0,0,0,-4.3776,-4.3804,-4.3822,-4.3838,-4.3906,-4.3974,-4.3906,-4.403,-4.4044,-4.4104,-4.4109,-4.4114,-4.4413,-4.4417,-4.453,-4.4591,0,0,0,-4.3774,-4.3804,-4.3825,-4.3839,-4.3888,-4.3971,-4.3981,-4.4033,-4.4043,-4.4107,-4.4114,-4.4411,-4.4416,-4.4523,-4.4579,-4.4679,0,0,0,-4.3778,-4.393,-4.3828,-4.3996,-4.3888,-4.4045,-4.398,-4.4096,-4.4165,-4.411,-4.4413,-4.4418,-4.452,-4.4572,-4.4672,-4.4768,-4.4811,0,0,-4.3983,-4.3956,-4.4053,-4.3964,-4.4146,-4.4025,-4.4224,-4.4265,-4.425,-4.4363,-4.4371,-4.4532,-4.4578,-4.4678,-4.5039,-4.5073,0,0,0,-4.4126,-4.4196,-4.4239,-4.4306,-4.4341,-4.4376,-4.4384,-4.4399,-4.4494,-4.4313,-4.4595,-4.4621,-4.4679,-4.4724,-4.4753,-4.4801,-4.4439,-4.4439,-4.4439,-4.445,-4.4422,-4.4581,-4.4567,-4.4632,-4.4639,-4.469,-4.4711,-4.4664,-4.4731,-4.4764,-4.4987,-4.5041,-4.5062,-4.5112,-4.4813,-4.4813,-4.4814,-4.4814,-4.4748,-4.4843,-4.4776,-4.4906,-4.4876,-4.4984,-4.4997,-4.4959,-4.5056,-4.4959,-4.5009,-4.4906,-4.51,-4.5142,-4.4823,-4.4821,-4.482,-4.4819,-4.4819,-4.4958,-4.4998,-4.5014,-4.5107,-4.5182,-4.5162,-4.5258,-4.5226,-4.5198,-4.5246,-4.5278,-4.5276,-4.527,-4.5264,-4.5264,-4.5265,-4.5266,-4.5266,-4.5267,-4.5169,-4.5183,-4.5267,-4.5317,-4.5355,-4.5402,-4.541,-4.5447,-4.548,-4.5449,-4.5449,-4.5395,-4.5124,-4.5057,-4.5279,-4.5277,-4.5275,-4.5274,-4.5273,-4.5482,-4.5406,-4.5537,-4.5576,-4.5631,-4.5708,-4.5666,-4.5744,-4.577,-4.5818,-4.5753,-4.5558,-4.5528,-4.5505,-4.5449,-4.5759,-4.5759,-4.5759,-4.5759,-4.5659,-4.5641,-4.5767,-4.5831,-4.589,-4.5865,-4.6014,-4.6021,-4.6017,-4.6031,-4.5981,-4.5904,-4.5882,-4.5865,-4.5834,-4.5781,-4.6169,-4.617,-4.617,-4.585,-4.5836,-4.5969,-4.5963,-4.6004,-4.6039,-4.6178,-4.6254,-4.6233,-4.6186,-4.6041,-4.6024,-4.5899,-4.586,-4.581,-4.5763,-4.5666,0,0]},{"header":{"parameterUnit":"m.s-1","parameterCategory":1,"la1":30.2992,"la2":30.254,"lo1":-89.0895,"lo2":-89.0443,"dy":0.0025,"dx":0.0025,"nx":19,"ny":19,"refTime":"2026-03-17T21:00:00:Z","depth":0,"parameterNumber":3,"parameterNumberName":"V-component_of_WINDS"},"data":[0,0,0,-2.2421,-2.2423,-2.2497,-2.2498,-2.2605,-2.2606,0,0,0,0,0,0,0,0,0,0,0,-2.2407,-2.2408,-2.2421,-2.2423,-2.2497,-2.2498,-2.2605,-2.2606,0,0,0,0,0,0,0,0,0,0,0,-2.2406,-2.2408,-2.2409,-2.2423,-2.2497,-2.2498,-2.2605,-2.2544,0,0,0,0,0,0,0,0,0,0,-2.247,-2.2464,-2.2407,-2.2409,-2.2424,-2.2497,-2.2498,-2.2541,-2.2548,-2.2577,0,-2.2605,0,-2.2607,-2.2614,-2.2615,0,0,0,-2.2417,-2.2459,-2.2472,-2.2409,-2.2425,-2.2497,-2.2462,-2.2545,-2.2552,-2.2586,-2.2606,-2.261,-2.2609,-2.2615,-2.2615,-2.2801,-2.2803,0,0,-2.2413,-2.2425,-2.2466,-2.2477,-2.2467,-2.246,-2.2465,-2.2549,-2.2572,-2.2606,-2.2612,-2.2611,-2.2616,-2.2617,-2.28,-2.2802,0,0,0,-2.2405,-2.2422,-2.2432,-2.2473,-2.2485,-2.2462,-2.2468,-2.2568,-2.2571,-2.2613,-2.2612,-2.2616,-2.2618,-2.2799,-2.2801,-2.2868,0,0,0,-2.2403,-2.2417,-2.2431,-2.2439,-2.2484,-2.2528,-2.2485,-2.2565,-2.2574,-2.2611,-2.2616,-2.2619,-2.2798,-2.28,-2.2864,-2.2899,0,0,0,-2.2399,-2.2417,-2.243,-2.2439,-2.2472,-2.2526,-2.2533,-2.2566,-2.2574,-2.2615,-2.2619,-2.2797,-2.28,-2.286,-2.2892,-2.2951,0,0,0,-2.2399,-2.2489,-2.2432,-2.2531,-2.2471,-2.2567,-2.2533,-2.2604,-2.2647,-2.2617,-2.2798,-2.2801,-2.2858,-2.2888,-2.2947,-2.3003,-2.3027,0,0,-2.2519,-2.2504,-2.2562,-2.2512,-2.2622,-2.2555,-2.2674,-2.2703,-2.2697,-2.2767,-2.2771,-2.2865,-2.2891,-2.295,-2.3159,-2.3179,0,0,0,-2.2604,-2.2646,-2.2672,-2.2714,-2.2738,-2.2761,-2.277,-2.2781,-2.284,-2.2735,-2.2902,-2.2917,-2.2951,-2.2977,-2.2994,-2.3022,-2.2813,-2.2813,-2.2813,-2.2791,-2.2777,-2.2872,-2.2867,-2.2908,-2.2916,-2.2948,-2.2963,-2.2938,-2.2978,-2.2999,-2.3127,-2.3159,-2.3171,-2.3201,-2.3027,-2.3027,-2.3027,-2.3028,-2.2965,-2.3022,-2.2986,-2.3065,-2.305,-2.3116,-2.3127,-2.3107,-2.3166,-2.3111,-2.314,-2.3081,-2.3193,-2.3218,-2.3033,-2.3032,-2.3031,-2.3031,-2.303,-2.3086,-2.3111,-2.3122,-2.318,-2.3226,-2.3218,-2.3277,-2.3261,-2.3246,-2.3275,-2.3295,-2.3294,-2.3291,-2.3286,-2.3286,-2.3287,-2.3287,-2.3287,-2.3288,-2.3207,-2.3217,-2.3268,-2.3301,-2.3325,-2.3355,-2.3364,-2.3387,-2.3409,-2.3393,-2.3393,-2.3364,-2.3206,-2.3167,-2.3295,-2.3293,-2.3292,-2.3292,-2.3291,-2.339,-2.3346,-2.3425,-2.3449,-2.3486,-2.3533,-2.3511,-2.356,-2.3577,-2.3606,-2.3571,-2.3457,-2.344,-2.3427,-2.3394,-2.3573,-2.3573,-2.3573,-2.3573,-2.3492,-2.3482,-2.3559,-2.3599,-2.3636,-2.3624,-2.3714,-2.3721,-2.3722,-2.3732,-2.3703,-2.3659,-2.3646,-2.3637,-2.3619,-2.3589,-2.3813,-2.3813,-2.3813,-2.3603,-2.3596,-2.3676,-2.3675,-2.3703,-2.3726,-2.381,-2.3857,-2.3848,-2.3823,-2.3739,-2.3729,-2.3657,-2.3634,-2.3607,-2.358,-2.3523,0,0]}]]